Погода в Пхентхэке

Южная Корея     36°59′48″N   127°05′54″E
темп.,
°C
ветер,
м/с
пор.,
м/с
влажн.,
%
обл.,
%
осадки,
мм/ч
давл.,
гПа
погр.,
м
12 апреля, пн
пн1200:00+12ююз1149100 0.0 102717
03:00+11ююз1153100 0.0 102622
06:00+12юв1157100 0.0 102415
09:00+14вюв2350100 0.0 1024300
12:00+14юв1252100 0.0 1022277
15:00+13вюв61149100 0.1 1017580
18:00+13юв51173100 0.4 1014527
21:00+13юв51180100 0.9 1012478
13 апреля, вт
вт1300:00+13ююз3792100 2.2 1011242
03:00+12зюз4998100 4.0 1010466
06:00+10з4897100 0.3 1011367
09:00+13сз577495 0.3 1013616
12:00+13зсз7967100 0.0 1014778
15:00+13зсз81157100 0.0 1014843
18:00+10зсз71055100 0.0 1015715
21:00+8зсз611590 0.0 1017465
14 апреля, ср
ср1400:00+7зсз510600 0.0 1019369
03:00+7зсз5105726 0.0 1019361
06:00+5сз49570 0.0 1019245
09:00+10ссз35370 0.0 1021645
12:00+14сз68260 0.0 10211468
15:00+13зсз78280 0.0 1020941
18:00+10зсз56400 0.0 1021484
21:00+7зюз34580 0.0 102295
15 апреля, чт
чт1500:00+7юз11540 0.0 102222
03:00+6ю11540 0.0 102114
06:00+5ююв115253 0.0 102222
09:00+10вюв2240100 0.0 1022292
12:00+15ю122925 0.0 1020883
15:00+17юз242386 0.0 10171730
18:00+13з46400 0.0 1017317
21:00+10юз3953100 0.0 1019271
16 апреля, пт
пт1600:00+10ююз3969100 0.0 1018305
03:00+10юз41076100 0.0 1018414
06:00+9ююз38845 0.0 1018210
09:00+13юз56650 0.0 1019754
12:00+17юз56460 0.0 10181247
15:00+18зюз68370 0.0 10161402
18:00+15зюз57510 0.0 1017754
21:00+11ююз3576100 0.0 1018118